| time (UTC) | temp C | wind direction | speed KPH | gust KPH | rain 1hr cm | rain 24hr cm | rain mn cm | humidity % | barometer mb |
| 20260505035543 | 13 | 246 | 0.0 | 14.5 | 0.00 | 0.00 | 0.00 | 89 | 1020.2 |
| 20260505035040 | 13 | 328 | 4.8 | 11.3 | 0.00 | 0.00 | 0.00 | 89 | 1020.2 |
| 20260505034536 | 13 | 65 | 3.2 | 12.9 | 0.00 | 0.00 | 0.00 | 88 | 1020.2 |
| 20260505034033 | 13 | 90 | 0.0 | 4.8 | 0.00 | 0.00 | 0.00 | 88 | 1020.3 |
| 20260505033530 | 13 | 180 | 1.6 | 16.1 | 0.00 | 0.00 | 0.00 | 87 | 1020.4 |
| 20260505033028 | 13 | 8 | 0.0 | 4.8 | 0.00 | 0.00 | 0.00 | 87 | 1020.0 |
| 20260505032526 | 13 | 243 | 3.2 | 9.7 | 0.00 | 0.00 | 0.00 | 86 | 1020.1 |
| 20260505032022 | 13 | 264 | 9.7 | 11.3 | 0.00 | 0.00 | 0.00 | 86 | 1020.1 |
| 20260505031520 | 13 | 140 | 8.0 | 16.1 | 0.00 | 0.00 | 0.00 | 85 | 1020.0 |
| 20260505031016 | 13 | 259 | 4.8 | 11.3 | 0.00 | 0.00 | 0.00 | 85 | 1020.1 |
| 20260505030513 | 14 | 157 | 4.8 | 9.7 | 0.00 | 0.00 | 0.00 | 84 | 1019.9 |
| 20260505030009 | 15 | 226 | 6.4 | 11.3 | 0.00 | 0.00 | 0.00 | 83 | 1020.0 |
| 20260505025504 | 15 | 97 | 8.0 | 14.5 | 0.00 | 0.00 | 0.00 | 82 | 1019.9 |
| 20260505025004 | 15 | 279 | 3.2 | 8.0 | 0.00 | 0.00 | 0.00 | 81 | 1019.9 |
| 20260505024500 | 15 | 291 | 6.4 | 8.0 | 0.00 | 0.00 | 0.00 | 80 | 1020.0 |
| 20260505023957 | 15 | 337 | 1.6 | 9.7 | 0.00 | 0.00 | 0.00 | 79 | 1020.1 |
| 20260505023454 | 15 | 307 | 8.0 | 11.3 | 0.00 | 0.00 | 0.00 | 78 | 1019.6 |
| 20260505022952 | 16 | 188 | 3.2 | 8.0 | 0.00 | 0.00 | 0.00 | 77 | 1019.7 |
| 20260505022449 | 16 | 250 | 3.2 | 11.3 | 0.00 | 0.00 | 0.00 | 75 | 1019.8 |
| 20260505021946 | 17 | 189 | 0.0 | 11.3 | 0.00 | 0.00 | 0.00 | 75 | 1019.7 |
| 20260505021443 | 17 | 8 | 3.2 | 12.9 | 0.00 | 0.00 | 0.00 | 73 | 1019.9 |
| 20260505020938 | 18 | 206 | 0.0 | 8.0 | 0.00 | 0.00 | 0.00 | 71 | 1019.6 |
| 20260505020434 | 18 | 235 | 6.4 | 6.4 | 0.00 | 0.00 | 0.00 | 70 | 1019.6 |
| 20260505015931 | 18 | 203 | 6.4 | 16.1 | 0.00 | 0.00 | 0.00 | 69 | 1019.6 |
| 20260505015428 | 18 | 10 | 4.8 | 9.7 | 0.00 | 0.00 | 0.00 | 68 | 1019.6 |
| 20260505014926 | 18 | 230 | 6.4 | 8.0 | 0.00 | 0.00 | 0.00 | 67 | 1019.6 |
| 20260505014422 | 18 | 352 | 0.0 | 12.9 | 0.00 | 0.00 | 0.00 | 68 | 1019.6 |
| 20260505013919 | 19 | 191 | 3.2 | 11.3 | 0.00 | 0.00 | 0.00 | 66 | 1019.3 |
| 20260505013416 | 19 | 114 | 0.0 | 4.8 | 0.00 | 0.00 | 0.00 | 67 | 1019.5 |
| 20260505012914 | 20 | 132 | 0.0 | 8.0 | 0.00 | 0.00 | 0.00 | 66 | 1019.7 |
| 20260505012412 | 20 | 273 | 4.8 | 12.9 | 0.00 | 0.00 | 0.00 | 65 | 1019.3 |
| 20260505011908 | 20 | 257 | 11.3 | 12.9 | 0.00 | 0.00 | 0.00 | 65 | 1019.4 |
| 20260505011405 | 20 | 90 | 0.0 | 8.0 | 0.00 | 0.00 | 0.00 | 64 | 1019.6 |
| 20260505010901 | 21 | 249 | 0.0 | 9.7 | 0.00 | 0.00 | 0.00 | 65 | 1019.4 |
| 20260505010357 | 20 | 324 | 8.0 | 9.7 | 0.00 | 0.00 | 0.00 | 64 | 1019.3 |
| 20260505005853 | 20 | 270 | 1.6 | 9.7 | 0.00 | 0.00 | 0.00 | 63 | 1019.6 |
| 20260505005350 | 20 | 15 | 4.8 | 11.3 | 0.00 | 0.00 | 0.00 | 64 | 1019.5 |
| 20260505004848 | 21 | 18 | 1.6 | 9.7 | 0.00 | 0.00 | 0.00 | 63 | 1019.5 |
| 20260505004343 | 21 | 209 | 1.6 | 11.3 | 0.00 | 0.00 | 0.00 | 63 | 1019.4 |
| 20260505003841 | 21 | 315 | 4.8 | 12.9 | 0.00 | 0.00 | 0.00 | 61 | 1019.6 |
| 20260505003338 | 21 | 14 | 3.2 | 9.7 | 0.00 | 0.00 | 0.00 | 61 | 1019.3 |
| 20260505002834 | 21 | 270 | 1.6 | 8.0 | 0.00 | 0.00 | 0.00 | 60 | 1019.5 |
| 20260505002331 | 21 | 202 | 4.8 | 16.1 | 0.00 | 0.00 | 0.00 | 60 | 1019.4 |
| 20260505001830 | 22 | 197 | 3.2 | 11.3 | 0.00 | 0.00 | 0.00 | 59 | 1019.5 |
| 20260505001326 | 22 | 338 | 3.2 | 12.9 | 0.00 | 0.00 | 0.00 | 60 | 1019.3 |
| 20260505000824 | 22 | 270 | 0.0 | 11.3 | 0.00 | 0.00 | 0.00 | 59 | 1019.3 |
| 20260505000321 | 22 | 213 | 4.8 | 9.7 | 0.00 | 0.00 | 0.00 | 60 | 1019.4 |
| 20260504235818 | 22 | 111 | 0.0 | 20.9 | 0.00 | 0.00 | 0.00 | 57 | 1019.6 |
| 20260504235315 | 22 | 117 | 8.0 | 12.9 | 0.00 | 0.00 | 0.00 | 57 | 1019.4 |
| 20260504234811 | 22 | 99 | 4.8 | 12.9 | 0.00 | 0.00 | 0.00 | 59 | 1019.4 |
| 20260504234309 | 22 | 19 | 3.2 | 14.5 | 0.00 | 0.00 | 0.00 | 57 | 1019.3 |
| 20260504233805 | 23 | 203 | 6.4 | 12.9 | 0.00 | 0.00 | 0.00 | 58 | 1019.4 |
| 20260504233301 | 23 | 138 | 8.0 | 8.0 | 0.00 | 0.00 | 0.00 | 59 | 1019.4 |
| 20260504232758 | 23 | 264 | 3.2 | 17.7 | 0.00 | 0.00 | 0.00 | 56 | 1019.3 |
| 20260504232255 | 23 | 289 | 0.0 | 8.0 | 0.00 | 0.00 | 0.00 | 56 | 1019.4 |
| 20260504231752 | 23 | 276 | 3.2 | 9.7 | 0.00 | 0.00 | 0.00 | 58 | 1019.6 |
| 20260504231248 | 23 | 171 | 0.0 | 12.9 | 0.00 | 0.00 | 0.00 | 55 | 1019.3 |
| 20260504230744 | 23 | 259 | 11.3 | 11.3 | 0.00 | 0.00 | 0.00 | 54 | 1019.3 |
| 20260504230243 | 23 | 117 | 0.0 | 9.7 | 0.00 | 0.00 | 0.00 | 55 | 1019.8 |
| 20260504225741 | 24 | 341 | 3.2 | 11.3 | 0.00 | 0.00 | 0.00 | 57 | 1019.2 |
| 20260504225237 | 23 | 192 | 3.2 | 11.3 | 0.00 | 0.00 | 0.00 | 56 | 1019.7 |
| 20260504224734 | 23 | 198 | 0.0 | 14.5 | 0.00 | 0.00 | 0.00 | 59 | 1019.6 |
| 20260504224231 | 23 | 168 | 0.0 | 11.3 | 0.00 | 0.00 | 0.00 | 57 | 1019.5 |
| 20260504223728 | 23 | 207 | 6.4 | 14.5 | 0.00 | 0.00 | 0.00 | 58 | 1019.5 |
| 20260504223223 | 23 | 227 | 4.8 | 14.5 | 0.00 | 0.00 | 0.00 | 57 | 1019.5 |
| 20260504222721 | 23 | 319 | 6.4 | 9.7 | 0.00 | 0.00 | 0.00 | 57 | 1019.5 |
| 20260504222218 | 23 | 143 | 8.0 | 9.7 | 0.00 | 0.00 | 0.00 | 58 | 1019.7 |
| 20260504221715 | 23 | 65 | 0.0 | 8.0 | 0.00 | 0.00 | 0.00 | 58 | 1019.8 |
| 20260504221212 | 23 | 303 | 3.2 | 8.0 | 0.00 | 0.00 | 0.00 | 58 | 1019.8 |
| 20260504220708 | 23 | 170 | 4.8 | 14.5 | 0.00 | 0.00 | 0.00 | 59 | 1019.9 |
| 20260504220206 | 23 | 132 | 11.3 | 11.3 | 0.00 | 0.00 | 0.00 | 58 | 1019.9 |
| 20260504215702 | 23 | 100 | 8.0 | 9.7 | 0.00 | 0.00 | 0.00 | 59 | 1019.8 |
| 20260504215200 | 23 | 216 | 0.0 | 8.0 | 0.00 | 0.00 | 0.00 | 58 | 1019.9 |
| 20260504214655 | 23 | 295 | 6.4 | 12.9 | 0.00 | 0.00 | 0.00 | 58 | 1019.9 |
| 20260504214152 | 23 | 157 | 11.3 | 11.3 | 0.00 | 0.00 | 0.00 | 59 | 1020.0 |
| 20260504213648 | 22 | 180 | 3.2 | 16.1 | 0.00 | 0.00 | 0.00 | 59 | 1019.9 |
| 20260504213145 | 22 | 146 | 6.4 | 8.0 | 0.00 | 0.00 | 0.00 | 62 | 1019.9 |
| 20260504212642 | 23 | 192 | 0.0 | 6.4 | 0.00 | 0.00 | 0.00 | 60 | 1020.1 |
| 20260504212138 | 22 | 66 | 0.0 | 11.3 | 0.00 | 0.00 | 0.00 | 58 | 1019.9 |
| 20260504211636 | 22 | 90 | 0.0 | 6.4 | 0.00 | 0.00 | 0.00 | 60 | 1020.1 |
| 20260504211132 | 22 | 304 | 8.0 | 16.1 | 0.00 | 0.00 | 0.00 | 59 | 1020.2 |
| 20260504210630 | 22 | 178 | 6.4 | 9.7 | 0.00 | 0.00 | 0.00 | 58 | 1020.3 |
| 20260504210126 | 22 | 256 | 6.4 | 14.5 | 0.00 | 0.00 | 0.00 | 60 | 1020.3 |
| 20260504205624 | 22 | 240 | 4.8 | 9.7 | 0.00 | 0.00 | 0.00 | 62 | 1020.2 |
| 20260504205121 | 22 | 339 | 0.0 | 9.7 | 0.00 | 0.00 | 0.00 | 59 | 1020.3 |
| 20260504204620 | 21 | 186 | 0.0 | 11.3 | 0.00 | 0.00 | 0.00 | 62 | 1020.2 |
| 20260504204118 | 21 | 194 | 4.8 | 14.5 | 0.00 | 0.00 | 0.00 | 62 | 1020.4 |
| 20260504203617 | 21 | 245 | 3.2 | 14.5 | 0.00 | 0.00 | 0.00 | 62 | 1020.3 |
| 20260504203114 | 21 | 350 | 9.7 | 9.7 | 0.00 | 0.00 | 0.00 | 62 | 1020.3 |
| 20260504202609 | 21 | 109 | 1.6 | 12.9 | 0.00 | 0.00 | 0.00 | 63 | 1020.3 |
| 20260504202106 | 21 | 184 | 3.2 | 16.1 | 0.00 | 0.00 | 0.00 | 62 | 1020.5 |
| 20260504201602 | 21 | 112 | 4.8 | 8.0 | 0.00 | 0.00 | 0.00 | 64 | 1020.5 |
| 20260504201100 | 21 | 213 | 0.0 | 9.7 | 0.00 | 0.00 | 0.00 | 64 | 1020.4 |
| 20260504200556 | 21 | 200 | 8.0 | 12.9 | 0.00 | 0.00 | 0.00 | 65 | 1020.4 |
| 20260504200053 | 20 | 134 | 9.7 | 12.9 | 0.00 | 0.00 | 0.00 | 65 | 1020.5 |
| 20260504195549 | 21 | 174 | 4.8 | 14.5 | 0.00 | 0.00 | 0.00 | 64 | 1020.4 |
| 20260504195046 | 21 | 288 | 3.2 | 8.0 | 0.00 | 0.00 | 0.00 | 63 | 1020.4 |
| 20260504194543 | 21 | 291 | 1.6 | 16.1 | 0.00 | 0.00 | 0.00 | 66 | 1020.3 |
| 20260504194038 | 20 | 194 | 4.8 | 11.3 | 0.00 | 0.00 | 0.00 | 66 | 1020.4 |
| 20260504193535 | 20 | 244 | 0.0 | 11.3 | 0.00 | 0.00 | 0.00 | 66 | 1020.6 |
| 20260504193034 | 20 | 235 | 0.0 | 12.9 | 0.00 | 0.00 | 0.00 | 66 | 1020.6 |
| 20260504192532 | 20 | 256 | 4.8 | 9.7 | 0.00 | 0.00 | 0.00 | 68 | 1020.4 |
| 20260504192029 | 20 | 19 | 4.8 | 14.5 | 0.00 | 0.00 | 0.00 | 70 | 1020.7 |
| 20260504191527 | 20 | 249 | 1.6 | 9.7 | 0.00 | 0.00 | 0.00 | 68 | 1020.8 |
| 20260504191023 | 20 | 244 | 4.8 | 8.0 | 0.00 | 0.00 | 0.00 | 69 | 1020.8 |
| 20260504190519 | 19 | 180 | 3.2 | 12.9 | 0.00 | 0.00 | 0.00 | 68 | 1020.8 |
| 20260504190015 | 19 | 259 | 3.2 | 11.3 | 0.00 | 0.00 | 0.00 | 70 | 1020.9 |
| 20260504185513 | 19 | 208 | 6.4 | 9.7 | 0.00 | 0.00 | 0.00 | 70 | 1021.0 |
| 20260504185009 | 18 | 332 | 3.2 | 11.3 | 0.00 | 0.00 | 0.00 | 70 | 1021.0 |
| 20260504184504 | 18 | 25 | 4.8 | 14.5 | 0.00 | 0.00 | 0.00 | 70 | 1020.9 |
| 20260504184000 | 19 | 124 | 8.0 | 16.1 | 0.00 | 0.00 | 0.00 | 72 | 1020.9 |
| 20260504183457 | 18 | 86 | 8.0 | 11.3 | 0.00 | 0.00 | 0.00 | 71 | 1020.9 |
| 20260504182955 | 18 | 134 | 6.4 | 12.9 | 0.00 | 0.00 | 0.00 | 71 | 1020.9 |
| 20260504182452 | 18 | 344 | 4.8 | 11.3 | 0.00 | 0.00 | 0.00 | 73 | 1021.0 |
| 20260504181949 | 18 | 20 | 0.0 | 9.7 | 0.00 | 0.00 | 0.00 | 73 | 1021.1 |
| 20260504181446 | 18 | 175 | 4.8 | 8.0 | 0.00 | 0.00 | 0.00 | 75 | 1021.0 |
| 20260504180945 | 18 | 192 | 0.0 | 12.9 | 0.00 | 0.00 | 0.00 | 74 | 1020.9 |
| 20260504180443 | 18 | 285 | 6.4 | 9.7 | 0.00 | 0.00 | 0.00 | 74 | 1020.9 |
| 20260504175941 | 18 | 315 | 3.2 | 9.7 | 0.00 | 0.00 | 0.00 | 73 | 1020.8 |
| 20260504175438 | 18 | 357 | 8.0 | 8.0 | 0.00 | 0.00 | 0.00 | 73 | 1020.8 |
| 20260504174936 | 18 | 154 | 1.6 | 11.3 | 0.00 | 0.00 | 0.00 | 74 | 1020.9 |
| 20260504174433 | 17 | 121 | 6.4 | 14.5 | 0.00 | 0.00 | 0.00 | 75 | 1021.0 |
| 20260504173930 | 18 | 327 | 4.8 | 9.7 | 0.00 | 0.00 | 0.00 | 74 | 1020.7 |
| 20260504173426 | 17 | 114 | 8.0 | 12.9 | 0.00 | 0.00 | 0.00 | 77 | 1020.8 |
| 20260504172924 | 17 | 33 | 6.4 | 11.3 | 0.00 | 0.00 | 0.00 | 76 | 1020.8 |
| 20260504172420 | 17 | 147 | 3.2 | 16.1 | 0.00 | 0.00 | 0.00 | 76 | 1020.8 |
| 20260504171917 | 17 | 45 | 4.8 | 9.7 | 0.00 | 0.00 | 0.00 | 77 | 1020.9 |
| 20260504171414 | 17 | 256 | 4.8 | 14.5 | 0.00 | 0.00 | 0.00 | 77 | 1020.9 |
| 20260504170911 | 17 | 165 | 6.4 | 8.0 | 0.00 | 0.00 | 0.00 | 80 | 1021.0 |
| 20260504170407 | 17 | 18 | 0.0 | 11.3 | 0.00 | 0.00 | 0.00 | 79 | 1020.9 |
| 20260504160326 | 15 | 358 | 4.8 | 14.5 | 0.00 | 0.00 | 0.00 | 82 | 1020.5 |
| 20260504150751 | 14 | 270 | 8.0 | 8.0 | 0.00 | 0.00 | 0.00 | 85 | 1020.3 |
| 20260504150247 | 14 | 81 | 0.0 | 4.8 | 0.00 | 0.00 | 0.00 | 86 | 1020.0 |
| 20260504141217 | 12 | 101 | 4.8 | 8.0 | 0.00 | 0.00 | 0.00 | 89 | 1019.7 |
| 20260504140714 | 12 | 294 | 3.2 | 8.0 | 0.00 | 0.00 | 0.00 | 89 | 1019.9 |
| 20260504140209 | 12 | 45 | 3.2 | 4.8 | 0.00 | 0.00 | 0.00 | 90 | 1019.7 |
| 20260504130638 | 10 | 278 | 0.0 | 0.0 | 0.00 | 0.00 | 0.00 | 99 | 1019.1 |
| 20260504130134 | 10 | 291 | 0.0 | 0.0 | 0.00 | 0.00 | 0.00 | 99 | 1019.0 |
| 20260504110526 | 10 | 7 | 0.0 | 0.0 | 0.00 | 0.00 | 0.00 | 93 | 1018.7 |
| 20260504100442 | 11 | 352 | 0.0 | 3.2 | 0.00 | 0.00 | 0.00 | 87 | 1018.4 |
| 20260504081835 | 12 | 8 | 0.0 | 0.0 | 0.00 | 0.00 | 0.00 | 75 | 1018.8 |
| 20260504081332 | 12 | 8 | 0.0 | 1.6 | 0.00 | 0.00 | 0.00 | 75 | 1018.7 |
| 20260504080827 | 12 | 352 | 0.0 | 0.0 | 0.00 | 0.00 | 0.00 | 76 | 1018.7 |
| 20260504080325 | 12 | 352 | 0.0 | 0.0 | 0.00 | 0.00 | 0.00 | 75 | 1018.9 |
| 20260504070252 | 12 | 15 | 1.6 | 1.6 | 0.00 | 0.00 | 0.00 | 83 | 1018.9 |
| 20260504060213 | 13 | 15 | 0.0 | 0.0 | 0.00 | 0.00 | 0.00 | 80 | 1018.8 |
| 20260504050640 | 15 | 0 | 0.0 | 1.6 | 0.00 | 0.00 | 0.00 | 78 | 1018.8 |
| 20260504050137 | 15 | 0 | 0.0 | 0.0 | 0.00 | 0.00 | 0.00 | 79 | 1018.7 |
| 20260504045635 | 15 | 352 | 0.0 | 0.0 | 0.00 | 0.00 | 0.00 | 76 | 1018.7 |
| 20260504045134 | 15 | 352 | 0.0 | 1.6 | 0.00 | 0.00 | 0.00 | 82 | 1018.5 |
| 20260504044633 | 15 | 0 | 0.0 | 0.0 | 0.00 | 0.00 | 0.00 | 76 | 1018.8 |
| 20260504044129 | 15 | 0 | 0.0 | 0.0 | 0.00 | 0.00 | 0.00 | 77 | 1018.7 |
| 20260504043626 | 15 | 0 | 0.0 | 0.0 | 0.00 | 0.00 | 0.00 | 74 | 1018.5 |
| 20260504043124 | 16 | 0 | 0.0 | 1.6 | 0.00 | 0.00 | 0.00 | 73 | 1018.6 |
| 20260504042621 | 16 | 8 | 0.0 | 0.0 | 0.00 | 0.00 | 0.00 | 74 | 1018.6 |
| 20260504042117 | 16 | 8 | 0.0 | 0.0 | 0.00 | 0.00 | 0.00 | 75 | 1018.5 |
| 20260504041613 | 16 | 29 | 0.0 | 0.0 | 0.00 | 0.00 | 0.00 | 75 | 1018.1 |
| 20260504041110 | 16 | 29 | 0.0 | 0.0 | 0.00 | 0.00 | 0.00 | 79 | 1018.3 |
| 20260504040607 | 16 | 29 | 0.0 | 0.0 | 0.00 | 0.00 | 0.00 | 74 | 1018.4 |
| 20260504040103 | 16 | 29 | 0.0 | 0.0 | 0.00 | 0.00 | 0.00 | 74 | 1018.4 |